Showing default

THURAYA 4, 62483

Orbit data source: Space-Track

THURAYA 4, 62483 is an Emirian payload satellite in GEO that was launched on Sat, 04 Jan 2025 UTC via an FALCON 9 launch vehicle from the Air Force Eastern Test Range (AFETR). Payload-class satellites include a variety of spacecraft equipped with specific instruments for various scientific and technological missions. These include communications satellites like Starlink; space stations such as the ISS; scientific satellites like the Hubble; Earth observation satellites from companies like Planet Labs, Umbra, and HawkEye 360; GPS; miniature CubeSats for education and research; and military/defense satellites.

Not visible in the next 10 days
Identifier
62483, 2025-001A
Orbit
GEO
Country
Flag of AEAE / UAE
Related business
None
Manufacturer
ADST/ADSUK
Mission
Operational Commercial Communications
Bus & Motor
EUROSTAR NEO, PPS-5000
Mass
5,000 kg wet, ~5,000 kg dry
Launch date (UTC)
2025-01-04 (9 months ago)
Launch vehicle
FALCON 9
Launch site
Air Force Eastern Test Range (AFETR)
Object type
Payload
Rocket body
Debris
Shape & HBR
Box + 2 Pan, 22.5 m
Radar Cross Section
58.239 m², Large (>1 m²)

Expand to show TLE details & history
Last TLE update: 16 hours ago

TLE from 16 hours ago
0 THURAYA 4
1 62483U 25001A   25291.09350323  .00000132  00000-0  00000-0 0  9991
2 62483   0.0184 132.3115 0000243 176.6772 155.8183  1.00274069  1752
Epoch: 2025-10-18T02:14Z
TLE epoch observation values (Epoch: 2025-10-18T02:14:38.679Z)
Latitude
-0.02084°
Longitude
44.29793°
Altitude
35,786.377 km
Speed
3.075 km/s
True Right ascension
06h 59m 09s
True Declination
0° 01' 15"
Sunlit
Object was in daylight at epoch
Visualization orbit readout
Latitude
Unknown
Longitude
Unknown
Altitude
Unknown
Speed
Unknown
Apparent Right ascension
Unknown
Apparent Declination
Unknown
Sunlit
N/A
Visualization observer readout
Local Sidereal Time
13:13:34
Azimuth
Unknown
Elevation
Unknown
Doppler factor
Unknown
Orbital elements
Apogee altitude
35,788.05 km
Perigee altitude
35,786 km
Semi-major axis
42,165.162 km
Eccentricity
0.00002
Inclination
0.0184°
RAAN
132.3115°
Arg. of periapsis
176.6772°
True anomaly
155.81944°
Mean anomaly
155.8183°
Eccentric anomaly
155.81887°
Mean motion
0.25068 °/min
Orbital period
1,436.12 mins
BSTAR
0
Loading maneuver chart data...
Computing Atmospheric mass density...
Loading historical data...
Loading historical data...
Loading historical data...
Loading historical data...
Loading historical data...
Loading historical data...
Loading historical data...
Other satellites on launch #1 in the year 2025 (2025-01-04 UTC)

Documentation

Showing up to 5 results
|